Weather in Petryata

Russia / Perm Krai     57°27′51″N   57°26′39″E
temp.,
°C
wind,
m/s
gust,
m/s
humid.,
%
clouds,
%
prec.,
mm/h
press.,
hPa
HPBL,
m
28 february, sun
sun2823:00−17e51192100 0.5 1010517
02:00−17e61191100 0.1 1009487
05:00−17e61290100 0.2 1009496
08:00−16e5128899 0.1 1008517
11:00−15e61190100 0.2 1008582
14:00−13ene6987100 0.1 1008639
17:00−13ene6989100 0.3 1009638
20:00−15ene5109296 0.1 1011503
1 march, mon
mon123:00−16ene499398 0.3 1013472
02:00−17ene3895100 0.2 1014408
05:00−17ne369699 0.3 1016243
08:00−18ne3597100 0.2 1017150
11:00−16ene349091 0.3 1018351
14:00−13ne238296 0.0 1018487
17:00−12nnw118698 0.0 1018254
20:00−18w1197100 0.0 101720
2 march, tue
tue223:00−19ssw129978 0.0 101720
02:00−20ssw229973 0.0 101620
05:00−21s3310074 0.0 101430
08:00−20s389899 0.0 1012211
11:00−16s61192100 0.0 1010434
14:00−13s61188100 0.0 1008549
17:00−11s61094100 0.5 1006598
20:00−12ssw51195100 0.8 1005617
3 march, wed
wed323:00−13s41095100 1.4 1004532
02:00−13s4995100 0.4 1003478
05:00−14sse4995100 0.8 1002346
08:00−13sse3696100 0.3 1001275
11:00−11sse3493100 0.6 1000334
14:00−8sse2389100 0.3 1000392
17:00−7nne1294100 0.6 999172
20:00−9n3496100 0.4 999110
4 march, thu
thu423:00−11nnw3496100 0.5 100099
02:00−12nnw359697 0.1 1000123
05:00−12nw369697 0.1 1001137
08:00−11nw499595 0.2 1003305
11:00−12nw589397 0.3 1004346
14:00−9wnw579198 0.0 1005542
17:00−8wnw478899 0.1 1006697
20:00−12w339288 0.0 100731